TimeCDT,TemperatureF,Dew PointF,Humidity,Sea Level PressureIn,VisibilityMPH,Wind Direction,Wind SpeedMPH,Gust SpeedMPH,PrecipitationIn,Events,Conditions,WindDirDegrees,DateUTC
12:53 AM,81.0,72.0,74,29.94,10.0,Calm,Calm,-,N/A,,Clear,0,2013-09-07 05:53:00
1:51 AM,80.6,73.4,79,29.99,10.0,SE,3.5,-,N/A,,Mostly Cloudy,140,2013-09-07 06:51:00
1:53 AM,80.1,72.0,76,29.95,10.0,SE,3.5,-,N/A,,Mostly Cloudy,140,2013-09-07 06:53:00
2:06 AM,80.6,73.4,79,29.99,10.0,Calm,Calm,-,N/A,,Scattered Clouds,0,2013-09-07 07:06:00
2:50 AM,80.6,71.6,74,29.98,10.0,Calm,Calm,-,N/A,,Mostly Cloudy,0,2013-09-07 07:50:00
2:53 AM,80.1,72.0,76,29.93,10.0,Calm,Calm,-,N/A,,Mostly Cloudy,0,2013-09-07 07:53:00
3:25 AM,80.6,73.4,79,29.98,10.0,Calm,Calm,-,N/A,,Overcast,0,2013-09-07 08:25:00
3:53 AM,80.1,73.0,79,29.94,10.0,Calm,Calm,-,N/A,,Scattered Clouds,0,2013-09-07 08:53:00
4:17 AM,80.6,73.4,79,29.98,10.0,SE,3.5,-,N/A,,Mostly Cloudy,130,2013-09-07 09:17:00
4:53 AM,80.1,73.9,81,29.94,10.0,Calm,Calm,-,N/A,,Overcast,0,2013-09-07 09:53:00
5:53 AM,80.1,73.9,81,29.95,10.0,Calm,Calm,-,N/A,,Mostly Cloudy,0,2013-09-07 10:53:00
6:53 AM,79.0,73.0,82,29.96,10.0,Calm,Calm,-,N/A,,Clear,0,2013-09-07 11:53:00
7:33 AM,78.8,73.4,83,30.00,10.0,ESE,3.5,-,N/A,,Mostly Cloudy,110,2013-09-07 12:33:00
7:53 AM,80.1,73.9,81,29.97,10.0,Calm,Calm,-,N/A,,Overcast,0,2013-09-07 12:53:00
8:10 AM,80.6,73.4,79,30.01,10.0,SE,3.5,-,N/A,,Scattered Clouds,130,2013-09-07 13:10:00
8:53 AM,82.9,73.9,74,29.98,10.0,SSE,3.5,-,N/A,,Partly Cloudy,150,2013-09-07 13:53:00
9:53 AM,86.0,73.9,67,29.99,10.0,Variable,4.6,-,N/A,,Partly Cloudy,0,2013-09-07 14:53:00
10:53 AM,89.1,71.1,55,29.99,10.0,ENE,4.6,-,N/A,,Scattered Clouds,70,2013-09-07 15:53:00
11:53 AM,91.0,68.0,47,29.98,10.0,East,4.6,-,N/A,,Partly Cloudy,80,2013-09-07 16:53:00
12:53 PM,93.0,66.9,42,29.96,10.0,ESE,8.1,-,N/A,,Scattered Clouds,120,2013-09-07 17:53:00
1:53 PM,96.1,66.9,38,29.93,10.0,Variable,4.6,-,N/A,,Scattered Clouds,0,2013-09-07 18:53:00
2:53 PM,97.0,66.9,37,29.89,10.0,East,5.8,-,0.00,Rain,Light Rain,100,2013-09-07 19:53:00
3:21 PM,95.0,68.0,41,29.92,10.0,ESE,16.1,-,0.00,,Scattered Clouds,110,2013-09-07 20:21:00
3:26 PM,93.2,69.8,46,29.92,10.0,SE,15.0,-,0.00,Thunderstorm,Thunderstorm,130,2013-09-07 20:26:00
3:29 PM,91.4,69.8,49,29.92,10.0,East,20.7,26.5,0.00,Thunderstorm,Thunderstorm,80,2013-09-07 20:29:00
3:38 PM,87.8,71.6,58,29.92,9.0,East,15.0,26.5,0.00,Rain-Thunderstorm,Thunderstorms and Rain,100,2013-09-07 20:38:00
3:53 PM,88.0,73.0,61,29.88,10.0,SE,8.1,-,0.00,Rain,Light Rain,140,2013-09-07 20:53:00
4:53 PM,96.1,66.9,38,29.86,10.0,East,10.4,-,0.00,,Clear,100,2013-09-07 21:53:00
5:53 PM,96.1,66.0,37,29.85,10.0,ESE,13.8,19.6,N/A,,Clear,110,2013-09-07 22:53:00
6:53 PM,91.9,70.0,48,29.87,10.0,East,15.0,-,N/A,,Partly Cloudy,100,2013-09-07 23:53:00
7:53 PM,88.0,71.1,57,29.90,10.0,ESE,10.4,-,N/A,,Clear,120,2013-09-08 00:53:00
8:53 PM,86.0,72.0,63,29.90,10.0,ESE,12.7,-,N/A,,Clear,110,2013-09-08 01:53:00
9:53 PM,84.0,73.0,69,29.91,10.0,ESE,11.5,-,N/A,,Clear,110,2013-09-08 02:53:00
10:53 PM,82.0,72.0,71,29.91,10.0,SE,5.8,-,N/A,,Clear,130,2013-09-08 03:53:00
11:53 PM,81.0,72.0,74,29.92,10.0,East,5.8,-,N/A,,Clear,100,2013-09-08 04:53:00